Weather Roundup
Issued by NWS Corpus Christi, TX

Home | Current Version | Previous Version | Text Only | Print | Product List | Glossary Off
Versions: 1 2 3 4 5 6 7 8 9 10 11 12 13 14 15 16 17 18 19 20 21 22 23 24 25 26 27 28 29 30 31 32 33 34 35 36 37 38 39 40 41 42 43 44 45 46 47 48 49 50

778
ASUS44 KCRP 251210
HRRCRP

SOUTH TEXAS REGIONAL WEATHER ROUNDUP
NATIONAL WEATHER SERVICE CORPUS CHRISTI TX
700 AM CDT WED MAY 25 2016


TXZ229>244-251300-
...CORPUS CHRISTI AREA OBSERVATIONS...

CITY           SKY/WX    TMP DP  RH WIND       PRES   REMARKS
CORPUS CHRISTI MOCLDY    80  77  90 SE8       29.94R FOG
NAS CORPUS CHR MOCLDY    81  80  97 S12       29.95R HX  91
ROCKPORT       CLOUDY    81  77  88 SE8       29.95R FOG
KINGSVILLE NAS MOCLDY    78  78 100 SE5       29.94R FOG
ALICE          FOG       74  74 100 NE6       29.94R VSB 1/4
FALFURRIAS     CLOUDY    78  76  92 E3        29.93R
$$

...VICTORIA AREA OBSERVATIONS...

CITY           SKY/WX    TMP DP  RH WIND       PRES   REMARKS
VICTORIA       CLOUDY    78  76  93 E3        29.98R FOG
BEEVILLE       CLOUDY    70  70 100 CALM      29.96R FOG
PLEASANTON     CLOUDY    76  75  96 E6        29.96S FOG
SAN ANTONIO    CLOUDY    77  73  87 SE9       29.98R
$$

...LAREDO AREA OBSERVATIONS...

CITY           SKY/WX    TMP DP  RH WIND       PRES   REMARKS
LAREDO         CLOUDY    79  76  90 SE9       29.94R
COTULLA        CLOUDY    79  75  87 SE10      29.94R
DEL RIO        CLOUDY    78  75  90 SE14      29.91R
MCALLEN        CLOUDY    82  77  84 SE9       29.93R HAZE    HX  90
HEBBRONVILLE   CLOUDY    78  75  92 SE8       29.96R FOG
$$

...OTHER TEXAS OBSERVATIONS...

CITY           SKY/WX    TMP DP  RH WIND       PRES   REMARKS
BROWNSVILLE    CLOUDY    81  78  91 SE12      29.93R
HOUSTON        MOCLDY    77  75  93 SE6       30.01R
COL. STATION   CLOUDY    78  75  90 S12       30.00R
AUSTIN         CLOUDY    77  75  93 S8        29.97R
WACO           CLOUDY    76  72  87 S12       29.97R
FORT WORTH     CLOUDY    78  71  79 S15G23    29.95R
WICHITA FALLS  CLOUDY    74  71  91 SE13      29.89R FOG
LUBBOCK        CLOUDY    68  66  93 SW15      29.95R FOG
EL PASO        PTCLDY    66  21  18 W6        30.06R
$$

...MARINE OBSERVATIONS...

STATION/POSITION TIME  SKY/WX   TEMP    WIND        PRES    VSBY  WAVE   SWELL
                                AIR SEA DIR/SP/G                  HT/PER HT/PER
                 (UTC)          (F)     (DEG/KT/KT) (MB)    (MI)  (FT/S) (FT/S)
PORT ARANSAS     1200            81 81  140/ 12/ 14 1014.7R
BUOY 90 E PORT A 1150            81 80  140/ 14/ 17 1015.1R         5/ 6   2/14
BUOY 45 SE BAFFI 1150            80 80  160/ 10/ 12 1013.6R         4/ 7   3/ 7
BUOY 200 E PT IS 1150                                 N/A           5/ 7
BUOY 15 E GALVES 1150            80 80  160/ 12/ 16 1016.0R         4/ 6
$$




USA.gov is the U.S. government's official web portal to all federal, state and local government web resources and services.